Location: Strawberry
(45.6646°N, 111.9596°W)
Time: 19:21:46
(UTC+00:00)

Vanguard 1 Rocket - Pass Details

Date: 08 October 2022
Orbit: 650 x 4225 km, 34.3° (Epoch: 01 December)

Event Time Altitude Azimuth Distance (km) Brightness Sun altitude
Rises 01:22:23 0° 230° (SW) 8,458 13.3 -5.4°
Reaches altitude 10° 01:28:46 10° 225° (SW) 7,393 12.8 -6.5°
Maximum altitude 01:51:17 47° 162° (SSE) 4,007 10.5 -10.4°
Enters shadow 02:03:59 15° 98° (E) 4,585 10.3 -12.6°
Drops below altitude 10° 02:05:18 10° 95° (E) 4,811 - -12.9°
Sets 02:08:25 0° 89° (E) 5,428 - -13.4°
